Weather in Ulus-Kert

Russia / Chechen Republic     42°59′14″N   45°45′55″E
temp.,
°C
wind,
m/s
gust,
m/s
humid.,
%
clouds,
%
prec.,
mm/h
press.,
hPa
HPBL,
m
27 october, wed
wed2700:000sse22885 0.0 103323
03:00−1sse22824 0.0 103317
06:000se11802 0.0 103211
09:00+5n21641 0.0 1030259
12:00+8n22590 0.0 1028543
15:00+8n21570 0.0 1026519
18:00+4sw11790 0.0 102610
21:00+3s11770 0.0 102510
28 october, thu
thu2800:00+3ssw11760 0.0 102411
03:00+3ssw11740 0.0 102411
06:00+3s11660 0.0 102412
09:00+9nne11510 0.0 1023185
12:00+11n21510 0.0 1022505
15:00+11n21530 0.0 1022493
18:00+7ssw21730 0.0 102311
21:00+6s11760 0.0 102411
29 october, fri
fri2900:00+5ssw21780 0.0 102411
03:00+4s21780 0.0 102411
06:00+4s2276100 0.0 102516
09:00+8nnw115864 0.0 1025301
12:00+9n2155100 0.0 1024760
15:00+9n215892 0.0 1025873
18:00+6wnw0076100 0.0 102710
21:00+6sse1178100 0.0 102814
30 october, sat
sat3000:00+6s0079100 0.0 102816
03:00+4s118614 0.0 102910
06:00+4s1186100 0.0 103010
09:00+7n117097 0.0 1030332
12:00+10n226012 0.0 1028811
15:00+10n226124 0.0 1028846
18:00+6ssw008124 0.0 103010
21:00+6ssw11844 0.0 103014
31 october, sun
sun3100:00+5s1183100 0.0 102910
03:00+5s1184100 0.0 102810
06:00+4ssw018610 0.0 102810
09:00+8n117478 0.0 1027235
12:00+10n2169100 0.0 1025525
15:00+10nnw1172100 0.0 1024450
18:00+8sw1184100 0.0 102514
21:00+7ssw118478 0.0 102411